| time (UTC) | temp C | wind direction | speed KPH | gust KPH | rain 1hr cm | rain 24hr cm | rain mn cm | humidity % | barometer mb |
| 20260506044551 | 7 | 0 | 1.6 | 12.9 | 0.05 | 1.40 | 0.66 | 95 | 1007.2 |
| 20260506043055 | 7 | 360 | 1.6 | 16.1 | 0.03 | 1.40 | 0.64 | 95 | 1007.2 |
| 20260506041558 | 7 | 0 | 0.0 | 12.9 | 0.03 | 1.37 | 0.64 | 95 | 1007.2 |
| 20260506040051 | 7 | 0 | 1.6 | 14.5 | 0.03 | 1.37 | 0.64 | 95 | 1007.2 |
| 20260506034558 | 7 | 0 | 1.6 | 11.3 | 0.03 | 1.35 | 0.61 | 95 | 1007.2 |
| 20260506033048 | 7 | 355 | 1.6 | 12.9 | 0.05 | 1.35 | 0.61 | 95 | 1007.4 |
| 20260506031552 | 8 | 355 | 1.6 | 9.7 | 0.05 | 1.32 | 0.58 | 95 | 1007.3 |
| 20260506030052 | 8 | 0 | 1.6 | 16.1 | 0.08 | 1.32 | 0.58 | 94 | 1007.4 |
| 20260506024550 | 8 | 0 | 0.0 | 11.3 | 0.08 | 1.30 | 0.56 | 94 | 1007.5 |
| 20260506023106 | 8 | 0 | 0.0 | 14.5 | 0.08 | 1.30 | 0.56 | 95 | 1007.6 |
| 20260506021549 | 8 | 0 | 0.0 | 8.0 | 0.08 | 1.27 | 0.53 | 95 | 1007.7 |
| 20260506020055 | 8 | 0 | 0.0 | 8.0 | 0.08 | 1.24 | 0.51 | 94 | 1007.6 |
| 20260506014553 | 8 | 0 | 0.0 | 9.7 | 0.13 | 1.24 | 0.48 | 95 | 1007.6 |
| 20260506013055 | 8 | 360 | 1.6 | 12.9 | 0.13 | 1.22 | 0.46 | 94 | 1007.6 |
| 20260506011551 | 8 | 0 | 1.6 | 9.7 | 0.13 | 1.19 | 0.43 | 95 | 1007.8 |
| 20260506010052 | 9 | 360 | 3.2 | 14.5 | 0.15 | 1.17 | 0.41 | 95 | 1007.7 |
| 20260506004557 | 9 | 0 | 0.0 | 8.0 | 0.10 | 1.12 | 0.36 | 95 | 1007.8 |
| 20260506003052 | 9 | 345 | 1.6 | 12.9 | 0.13 | 1.09 | 0.33 | 94 | 1007.8 |
| 20260506001557 | 9 | 0 | 0.0 | 14.5 | 0.10 | 1.04 | 0.28 | 94 | 1007.9 |
| 20260506000100 | 9 | 0 | 3.2 | 14.5 | 0.08 | 1.02 | 0.25 | 94 | 1008.1 |
| 20260505234552 | 9 | 0 | 1.6 | 16.1 | 0.10 | 0.99 | 0.23 | 94 | 1008.2 |
| 20260505233057 | 9 | 360 | 3.2 | 14.5 | 0.08 | 0.94 | 0.18 | 95 | 1008.2 |
| 20260505231551 | 9 | 360 | 1.6 | 12.9 | 0.10 | 0.94 | 0.18 | 94 | 1008.3 |
| 20260505230118 | 9 | 360 | 1.6 | 16.1 | 0.15 | 0.91 | 0.15 | 94 | 1008.4 |
| 20260505224556 | 9 | 360 | 3.2 | 14.5 | 0.18 | 0.86 | 0.10 | 94 | 1008.4 |
| 20260505223054 | 9 | 360 | 3.2 | 14.5 | 0.23 | 0.84 | 0.08 | 94 | 1008.5 |
| 20260505221559 | 9 | 360 | 4.8 | 14.5 | 0.23 | 0.81 | 0.05 | 94 | 1008.6 |
| 20260505220059 | 9 | 0 | 1.6 | 14.5 | 0.20 | 0.74 | 0.00 | 94 | 1008.7 |
| 20260505214553 | 9 | 360 | 3.2 | 12.9 | 0.20 | 0.69 | 0.69 | 94 | 1008.8 |
| 20260505213055 | 9 | 360 | 6.4 | 16.1 | 0.18 | 0.61 | 0.61 | 94 | 1009.0 |
| 20260505211601 | 9 | 360 | 6.4 | 16.1 | 0.18 | 0.56 | 0.56 | 94 | 1008.9 |
| 20260505204551 | 10 | 0 | 3.2 | 12.9 | 0.18 | 0.46 | 0.46 | 94 | 1008.9 |
| 20260505203106 | 10 | 0 | 1.6 | 9.7 | 0.18 | 0.43 | 0.43 | 94 | 1009.0 |
| 20260505201551 | 10 | 0 | 0.0 | 9.7 | 0.18 | 0.36 | 0.36 | 94 | 1008.9 |
| 20260505200101 | 10 | 0 | 1.6 | 9.7 | 0.18 | 0.33 | 0.33 | 94 | 1008.8 |
| 20260505194549 | 10 | 0 | 3.2 | 16.1 | 0.18 | 0.28 | 0.28 | 93 | 1008.8 |
| 20260505193059 | 10 | 0 | 4.8 | 14.5 | 0.15 | 0.23 | 0.23 | 93 | 1008.8 |
| 20260505191557 | 10 | 0 | 0.0 | 9.7 | 0.10 | 0.18 | 0.18 | 93 | 1008.6 |
| 20260505190050 | 10 | 0 | 0.0 | 8.0 | 0.05 | 0.10 | 0.10 | 93 | 1008.4 |
| 20260505184556 | 10 | 0 | 0.0 | 6.4 | 0.03 | 0.08 | 0.08 | 93 | 1008.5 |
| 20260505183053 | 10 | 0 | 0.0 | 14.5 | 0.00 | 0.08 | 0.08 | 93 | 1008.4 |
| 20260505181556 | 10 | 0 | 1.6 | 9.7 | 0.00 | 0.05 | 0.05 | 92 | 1008.4 |
| 20260505180047 | 10 | 0 | 1.6 | 9.7 | 0.00 | 0.05 | 0.05 | 92 | 1008.5 |
| 20260505174559 | 10 | 360 | 1.6 | 16.1 | 0.00 | 0.05 | 0.05 | 92 | 1008.5 |
| 20260505173057 | 10 | 360 | 1.6 | 16.1 | 0.00 | 0.05 | 0.05 | 92 | 1008.6 |
| 20260505171555 | 10 | 360 | 3.2 | 16.1 | 0.00 | 0.05 | 0.05 | 92 | 1008.5 |
| 20260505170051 | 10 | 360 | 4.8 | 16.1 | 0.00 | 0.05 | 0.05 | 93 | 1008.5 |
| 20260505164554 | 10 | 360 | 0.0 | 12.9 | 0.00 | 0.05 | 0.05 | 93 | 1008.6 |
| 20260505163048 | 10 | 360 | 0.0 | 8.0 | 0.00 | 0.05 | 0.05 | 93 | 1008.5 |
| 20260505161609 | 10 | 0 | 0.0 | 8.0 | 0.00 | 0.05 | 0.05 | 92 | 1008.6 |
| 20260505153059 | 11 | 0 | 1.6 | 14.5 | 0.00 | 0.05 | 0.05 | 92 | 1008.8 |
| 20260505151601 | 11 | 0 | 1.6 | 14.5 | 0.00 | 0.05 | 0.05 | 93 | 1008.8 |
| 20260505150105 | 11 | 344 | 0.0 | 12.9 | 0.00 | 0.05 | 0.05 | 93 | 1008.7 |
| 20260505130115 | 10 | 348 | 3.2 | 16.1 | 0.00 | 0.05 | 0.05 | 95 | 1009.5 |
| 20260505124608 | 10 | 360 | 1.6 | 12.9 | 0.00 | 0.05 | 0.05 | 95 | 1009.6 |
| 20260505123105 | 10 | 346 | 1.6 | 12.9 | 0.00 | 0.05 | 0.05 | 95 | 1009.5 |
| 20260505121556 | 10 | 360 | 1.6 | 16.1 | 0.00 | 0.05 | 0.05 | 95 | 1009.8 |
| 20260505120113 | 10 | 360 | 1.6 | 12.9 | 0.00 | 0.05 | 0.05 | 95 | 1009.8 |
| 20260505114556 | 10 | 0 | 1.6 | 14.5 | 0.00 | 0.05 | 0.05 | 95 | 1010.0 |
| 20260505113115 | 10 | 360 | 1.6 | 16.1 | 0.00 | 0.05 | 0.05 | 95 | 1009.9 |
| 20260505111556 | 10 | 0 | 1.6 | 12.9 | 0.00 | 0.05 | 0.05 | 95 | 1009.9 |
| 20260505110112 | 10 | 360 | 0.0 | 8.0 | 0.00 | 0.05 | 0.05 | 95 | 1009.9 |
| 20260505101555 | 11 | 0 | 0.0 | 14.5 | 0.00 | 0.05 | 0.05 | 95 | 1010.0 |
| 20260505100057 | 11 | 360 | 0.0 | 14.5 | 0.00 | 0.05 | 0.05 | 95 | 1010.0 |
| 20260505094601 | 11 | 360 | 0.0 | 12.9 | 0.00 | 0.05 | 0.05 | 95 | 1010.0 |
| 20260505093058 | 11 | 0 | 1.6 | 14.5 | 0.00 | 0.05 | 0.05 | 95 | 1010.0 |
| 20260505091604 | 11 | 0 | 0.0 | 12.9 | 0.00 | 0.03 | 0.03 | 95 | 1010.1 |
| 20260505084555 | 11 | 360 | 0.0 | 9.7 | 0.00 | 0.03 | 0.03 | 95 | 1010.1 |
| 20260505083059 | 11 | 0 | 0.0 | 8.0 | 0.00 | 0.03 | 0.03 | 95 | 1010.1 |
| 20260505081556 | 11 | 348 | 0.0 | 8.0 | 0.00 | 0.03 | 0.03 | 95 | 1010.2 |
| 20260505080052 | 11 | 0 | 0.0 | 6.4 | 0.00 | 0.03 | 0.03 | 95 | 1010.2 |
| 20260505074550 | 11 | 360 | 3.2 | 16.1 | 0.00 | 0.03 | 0.03 | 95 | 1010.2 |
| 20260505073051 | 11 | 0 | 1.6 | 8.0 | 0.00 | 0.03 | 0.03 | 95 | 1010.3 |
| 20260505071551 | 11 | 0 | 1.6 | 12.9 | 0.00 | 0.03 | 0.03 | 94 | 1010.1 |
| 20260505070052 | 11 | 0 | 0.0 | 12.9 | 0.00 | 0.03 | 0.03 | 94 | 1010.1 |
| 20260505064550 | 11 | 360 | 0.0 | 12.9 | 0.00 | 0.03 | 0.03 | 94 | 1010.1 |
| 20260505063046 | 11 | 0 | 0.0 | 6.4 | 0.00 | 0.00 | 0.00 | 94 | 1010.1 |
| 20260505061554 | 11 | 0 | 1.6 | 12.9 | 0.00 | 0.00 | 0.00 | 94 | 1010.1 |
| 20260505060050 | 11 | 360 | 0.0 | 11.3 | 0.00 | 0.00 | 0.00 | 94 | 1010.4 |
| 20260505054556 | 11 | 0 | 0.0 | 9.7 | 0.00 | 0.00 | 0.00 | 94 | 1010.3 |
| 20260505053056 | 11 | 0 | 0.0 | 8.0 | 0.00 | 0.00 | 0.00 | 94 | 1010.4 |
| 20260505051552 | 11 | 5 | 0.0 | 12.9 | 0.00 | 0.00 | 0.00 | 94 | 1010.2 |